contact:dominique.lefevre@mio.osupytheas.fr, maurice.libes@osupytheas.fr, didier.mallarino@osupytheas.fr
Project:EMSO http://www.emso-fr.org/EMSO-France
Depth: 2436.0 m
Title:EMSO Ligure Ouest : Data MII capteur AQUADOPP
Date,Latitude,Longitude,X_East,Y_North,Z_Up,Amplitude_X,Amplitude_Y,Amplitude_Z,Batterie,SoundSpeed,Heading,Pitch,Roll,Pressure,TIS,Speed,Direction
, degrees North, degrees East, m.s-1, m.s-1,m.s-1, 1, 1, 1, Volt, m.s-1, degree, degree, degree, dbar, degree_C, m.s-1, degree
2023-10-19T00:04:03,42.805,6.029,0.03,-0.016,-0.014,103.0,103.0,101.0,13.3,1505.2,347.2,-0.7,1.8,2471.58,13.28,0.034,118.1
2023-10-19T00:07:03,42.805,6.029,0.042,-0.028,-0.002,101.0,102.0,102.0,13.4,1505.2,353.0,-0.8,1.8,2471.569,13.28,0.05,123.7
2023-10-19T00:10:03,42.805,6.029,0.028,-0.03,-0.037,101.0,103.0,102.0,13.3,1505.2,355.9,-0.7,1.8,2471.534,13.29,0.041,137.0
2023-10-19T00:13:03,42.805,6.029,0.005,0.001,-0.038,101.0,103.0,102.0,13.4,1505.2,339.9,-0.8,1.8,2471.538,13.29,0.005,78.7
2023-10-19T00:16:03,42.805,6.029,0.029,-0.026,0.0,102.0,104.0,102.0,13.4,1505.2,342.4,-0.8,1.8,2471.566,13.29,0.038,131.9
2023-10-19T00:19:03,42.805,6.029,0.044,-0.037,-0.009,103.0,103.0,103.0,13.4,1505.2,350.3,-0.8,1.8,2471.502,13.29,0.057,130.1
2023-10-19T00:22:03,42.805,6.029,0.039,-0.032,-0.01,104.0,103.0,100.0,13.4,1505.2,350.5,-0.8,1.8,2471.531,13.29,0.05,129.4
2023-10-19T00:25:03,42.805,6.029,0.019,-0.015,-0.026,103.0,103.0,101.0,13.4,1505.2,355.9,-0.8,1.8,2471.505,13.29,0.024,128.3
2023-10-19T00:28:03,42.805,6.029,0.047,-0.017,-0.032,103.0,103.0,102.0,13.4,1505.2,342.2,-0.7,1.8,2471.492,13.29,0.049,109.9
2023-10-19T00:31:03,42.805,6.029,0.049,-0.005,-0.008,102.0,104.0,102.0,13.4,1505.2,334.6,-0.8,1.8,2471.536,13.29,0.049,95.8
2023-10-19T00:34:03,42.805,6.029,0.034,-0.014,-0.001,102.0,103.0,101.0,13.3,1505.2,346.4,-0.8,1.9,2471.52,13.29,0.036,112.4
2023-10-19T00:37:02,42.805,6.029,0.008,-0.019,-0.021,103.0,101.0,102.0,13.4,1505.2,356.9,-0.8,1.9,2471.484,13.29,0.02,157.2
2023-10-19T00:40:03,42.805,6.029,0.042,-0.032,-0.007,103.0,102.0,102.0,13.3,1505.2,335.6,-0.7,1.8,2471.501,13.29,0.052,127.3
2023-10-19T00:43:03,42.805,6.029,0.036,-0.013,-0.024,102.0,102.0,102.0,13.4,1505.2,342.3,-0.8,1.8,2471.527,13.29,0.038,109.9
2023-10-19T00:46:03,42.805,6.029,0.015,-0.016,-0.004,103.0,103.0,102.0,13.4,1505.2,358.1,-0.8,1.8,2471.541,13.29,0.021,136.9
2023-10-19T00:49:03,42.805,6.029,0.045,-0.018,-0.018,103.0,102.0,101.0,13.4,1505.2,330.5,-0.7,1.8,2471.505,13.29,0.048,111.8
2023-10-19T00:52:03,42.805,6.029,0.04,-0.008,0.013,103.0,102.0,101.0,13.3,1505.2,333.0,-0.7,1.8,2471.498,13.29,0.04,101.3
2023-10-19T00:55:03,42.805,6.029,0.037,-0.013,-0.028,102.0,103.0,102.0,13.4,1505.2,341.5,-0.7,1.8,2471.471,13.29,0.039,109.4
2023-10-19T00:58:03,42.805,6.029,0.04,-0.02,-0.021,104.0,104.0,100.0,13.4,1505.2,342.8,-0.7,1.8,2471.482,13.29,0.044,116.6
2023-10-19T01:04:03,42.805,6.029,0.019,-0.044,0.022,104.0,108.0,103.0,13.4,1505.2,357.2,-0.8,1.8,2471.518,13.28,0.047,156.6
2023-10-19T01:07:03,42.805,6.029,0.05,-0.004,-0.004,102.0,103.0,101.0,13.3,1505.2,331.1,-0.8,1.8,2471.525,13.29,0.05,94.6
2023-10-19T01:10:03,42.805,6.029,0.021,-0.014,-0.011,102.0,102.0,102.0,13.4,1505.2,345.1,-0.7,1.8,2471.532,13.29,0.025,123.7
2023-10-19T01:13:03,42.805,6.029,0.029,-0.013,-0.011,104.0,104.0,101.0,13.4,1505.2,348.8,-0.8,1.8,2471.516,13.29,0.031,114.1
2023-10-19T01:16:03,42.805,6.029,0.029,-0.012,-0.025,103.0,103.0,102.0,13.4,1505.2,353.1,-0.8,1.8,2471.487,13.29,0.031,112.5
2023-10-19T01:19:03,42.805,6.029,0.033,-0.007,-0.036,103.0,104.0,102.0,13.4,1505.2,351.7,-0.8,1.8,2471.472,13.29,0.033,102.0
2023-10-19T01:22:03,42.805,6.029,0.044,0.0,0.007,103.0,103.0,102.0,13.4,1505.2,341.8,-0.7,1.8,2471.501,13.29,0.044,90.0
2023-10-19T01:25:03,42.805,6.029,0.021,0.0,-0.009,103.0,103.0,102.0,13.4,1505.2,337.8,-0.8,1.8,2471.47,13.29,0.021,90.0
2023-10-19T01:28:03,42.805,6.029,0.031,-0.039,-0.029,104.0,102.0,101.0,13.4,1505.2,350.7,-0.8,1.8,2471.507,13.29,0.049,141.5
2023-10-19T01:31:03,42.805,6.029,0.039,-0.019,0.007,102.0,103.0,101.0,13.3,1505.2,343.0,-0.8,1.8,2471.514,13.29,0.043,116.0
2023-10-19T01:34:03,42.805,6.029,0.022,-0.016,-0.029,103.0,103.0,102.0,13.4,1505.2,355.8,-0.8,1.8,2471.499,13.29,0.027,126.0
2023-10-19T01:37:03,42.805,6.029,0.035,-0.018,-0.025,104.0,102.0,102.0,13.3,1505.2,335.6,-0.8,1.8,2471.49,13.29,0.039,117.2
2023-10-19T01:40:03,42.805,6.029,0.028,-0.004,-0.023,103.0,103.0,101.0,13.3,1505.2,353.0,-0.8,1.8,2471.451,13.29,0.028,98.1
2023-10-19T01:43:03,42.805,6.029,0.023,-0.014,-0.022,104.0,102.0,102.0,13.3,1505.2,354.9,-0.8,1.8,2471.44,13.29,0.026,121.3
2023-10-19T01:46:03,42.805,6.029,0.055,-0.018,-0.007,102.0,102.0,103.0,13.4,1505.2,351.8,-0.8,1.8,2471.489,13.29,0.057,108.1
2023-10-19T01:49:03,42.805,6.029,0.026,-0.018,-0.042,103.0,102.0,101.0,13.4,1505.2,339.3,-0.8,1.8,2471.448,13.29,0.031,124.7
2023-10-19T01:52:03,42.805,6.029,0.032,-0.003,0.0,102.0,103.0,102.0,13.4,1505.2,358.1,-0.7,1.8,2471.5,13.29,0.032,95.4
2023-10-19T01:55:03,42.805,6.029,0.016,-0.019,-0.043,104.0,102.0,102.0,13.3,1505.2,357.9,-0.8,1.8,2471.45,13.29,0.024,139.9
2023-10-19T01:58:03,42.805,6.029,0.047,-0.018,-0.027,102.0,102.0,102.0,13.4,1505.2,338.7,-0.7,1.8,2471.46,13.29,0.05,111.0
2023-10-19T02:04:03,42.805,6.029,0.033,0.002,-0.016,103.0,102.0,102.0,13.3,1505.2,335.2,-0.8,1.8,2471.521,13.28,0.033,86.5
2023-10-19T02:07:03,42.805,6.029,0.002,0.021,-0.013,103.0,103.0,102.0,13.4,1505.2,339.8,-0.8,1.8,2471.505,13.28,0.021,5.4
2023-10-19T02:10:03,42.805,6.029,0.032,-0.01,-0.025,103.0,103.0,102.0,13.4,1505.2,349.0,-0.8,1.8,2471.54,13.29,0.033,107.4
2023-10-19T02:13:03,42.805,6.029,0.05,-0.024,0.026,102.0,104.0,101.0,13.4,1505.2,350.7,-0.8,1.8,2471.506,13.29,0.055,115.6
2023-10-19T02:16:03,42.805,6.029,0.054,-0.012,-0.021,102.0,104.0,102.0,13.4,1505.2,357.9,-0.8,1.8,2471.508,13.29,0.055,102.5
2023-10-19T02:19:03,42.805,6.029,0.037,-0.018,-0.031,103.0,104.0,102.0,13.3,1505.2,336.8,-0.8,1.8,2471.459,13.29,0.041,115.9
2023-10-19T02:22:03,42.805,6.029,0.036,0.009,0.025,102.0,103.0,102.0,13.3,1505.2,342.8,-0.8,1.8,2471.466,13.29,0.037,76.0
2023-10-19T02:25:03,42.805,6.029,0.049,-0.015,0.002,102.0,103.0,102.0,13.3,1505.2,350.2,-0.8,1.8,2471.463,13.29,0.051,107.0
2023-10-19T02:28:03,42.805,6.029,0.025,-0.016,-0.037,103.0,101.0,102.0,13.4,1505.2,359.0,-0.8,1.8,2471.428,13.29,0.029,122.6
2023-10-19T02:31:03,42.805,6.029,0.042,-0.016,0.003,103.0,102.0,102.0,13.3,1505.2,332.6,-0.8,1.8,2471.485,13.29,0.044,110.9
2023-10-19T02:34:03,42.805,6.029,0.026,-0.006,0.001,102.0,103.0,102.0,13.3,1505.2,337.0,-0.7,1.8,2471.448,13.29,0.026,103.0
2023-10-19T02:37:03,42.805,6.029,0.034,-0.015,-0.038,103.0,103.0,101.0,13.3,1505.2,357.2,-0.7,1.8,2471.481,13.29,0.037,113.8
2023-10-19T02:40:03,42.805,6.029,0.026,-0.012,-0.029,101.0,104.0,102.0,13.4,1505.2,344.4,-0.8,1.8,2471.486,13.29,0.028,114.8
2023-10-19T02:43:03,42.805,6.029,0.045,-0.005,-0.014,101.0,104.0,101.0,13.4,1505.2,339.0,-0.8,1.8,2471.444,13.29,0.045,96.3
2023-10-19T02:46:03,42.805,6.029,0.045,0.001,-0.014,102.0,103.0,103.0,13.3,1505.2,333.0,-0.8,1.8,2471.429,13.29,0.045,88.7
2023-10-19T02:49:03,42.805,6.029,0.02,-0.021,0.039,102.0,102.0,101.0,13.4,1505.2,358.1,-0.8,1.8,2471.471,13.29,0.028,136.4
2023-10-19T02:52:03,42.805,6.029,0.03,-0.008,-0.045,102.0,103.0,102.0,13.4,1505.2,345.3,-0.7,1.8,2471.432,13.29,0.031,104.9
2023-10-19T02:55:03,42.805,6.029,0.026,-0.014,-0.011,103.0,103.0,101.0,13.4,1505.2,349.6,-0.7,1.8,2471.466,13.29,0.029,118.3
2023-10-19T02:58:03,42.805,6.029,0.036,-0.009,-0.015,104.0,103.0,101.0,13.4,1505.2,356.9,-0.8,1.8,2471.458,13.29,0.037,104.0
2023-10-19T03:04:03,42.805,6.029,0.039,-0.001,-0.032,103.0,104.0,102.0,13.3,1505.2,330.7,-0.8,1.8,2471.452,13.28,0.039,91.5
2023-10-19T03:07:03,42.805,6.029,0.001,-0.001,-0.006,102.0,102.0,102.0,13.4,1505.2,344.8,-0.8,1.8,2471.462,13.29,0.001,135.0
2023-10-19T03:10:03,42.805,6.029,0.034,-0.019,-0.005,103.0,104.0,100.0,13.4,1505.2,350.7,-0.8,1.8,2471.534,13.29,0.038,119.2
2023-10-19T03:13:03,42.805,6.029,0.017,-0.011,-0.044,102.0,103.0,102.0,13.4,1505.2,343.4,-0.7,1.8,2471.452,13.29,0.02,122.9
2023-10-19T03:16:03,42.805,6.029,0.051,-0.01,-0.027,103.0,104.0,101.0,13.4,1505.2,343.5,-0.8,1.8,2471.477,13.29,0.051,101.1
2023-10-19T03:19:03,42.805,6.029,0.024,0.001,-0.028,103.0,104.0,103.0,13.3,1505.2,0.0,-0.8,1.8,2471.462,13.29,0.024,87.6
2023-10-19T03:22:03,42.805,6.029,0.004,0.028,-0.04,103.0,102.0,101.0,13.4,1505.2,332.6,-0.8,1.8,2471.424,13.29,0.028,8.1
2023-10-19T03:25:03,42.805,6.029,0.045,-0.001,-0.038,103.0,104.0,101.0,13.4,1505.2,342.8,-0.8,1.8,2471.478,13.29,0.045,91.3
2023-10-19T03:28:03,42.805,6.029,0.04,-0.011,-0.014,101.0,103.0,102.0,13.4,1505.2,335.9,-0.7,1.8,2471.469,13.29,0.041,105.4
2023-10-19T03:31:03,42.805,6.029,0.039,-0.037,-0.03,103.0,104.0,101.0,13.3,1505.2,356.4,-0.8,1.8,2471.431,13.29,0.053,133.5
2023-10-19T03:34:03,42.805,6.029,0.023,-0.004,-0.043,103.0,102.0,102.0,13.3,1505.2,345.2,-0.8,1.8,2471.467,13.29,0.023,99.9
2023-10-19T03:37:03,42.805,6.029,0.024,-0.009,-0.025,102.0,103.0,102.0,13.4,1505.2,357.2,-0.8,1.8,2471.406,13.29,0.025,110.6
2023-10-19T03:40:03,42.805,6.029,0.024,-0.016,-0.035,103.0,102.0,101.0,13.4,1505.2,344.9,-0.8,1.8,2471.451,13.29,0.028,123.7
2023-10-19T03:43:03,42.805,6.029,0.026,0.02,-0.026,102.0,102.0,101.0,13.4,1505.2,331.5,-0.8,1.8,2471.477,13.29,0.032,52.4
2023-10-19T03:46:03,42.805,6.029,0.041,-0.007,-0.02,103.0,102.0,101.0,13.4,1505.2,343.3,-0.8,1.8,2471.472,13.29,0.041,99.7
2023-10-19T03:49:03,42.805,6.029,0.04,0.0,-0.014,101.0,103.0,102.0,13.4,1505.2,336.4,-0.8,1.8,2471.48,13.29,0.04,90.0
2023-10-19T03:52:03,42.805,6.029,0.043,-0.001,-0.004,103.0,102.0,101.0,13.4,1505.2,348.4,-0.7,1.8,2471.446,13.29,0.043,91.3
2023-10-19T03:55:03,42.805,6.029,0.034,-0.037,-0.021,103.0,101.0,101.0,13.4,1505.2,355.9,-0.8,1.8,2471.418,13.29,0.05,137.4
2023-10-19T03:58:03,42.805,6.029,0.034,0.014,0.016,102.0,102.0,102.0,13.4,1505.2,332.3,-0.8,1.8,2471.431,13.29,0.036,67.6
2023-10-19T04:04:03,42.805,6.029,0.036,-0.016,-0.01,102.0,103.0,101.0,13.4,1505.2,352.1,-0.8,1.9,2471.534,13.28,0.039,114.0
2023-10-19T04:07:03,42.805,6.029,0.055,-0.002,0.008,101.0,102.0,101.0,13.3,1505.2,339.5,-0.8,1.9,2471.471,13.28,0.055,92.1
2023-10-19T04:10:03,42.805,6.029,0.037,0.009,-0.003,103.0,103.0,100.0,13.4,1505.2,334.9,-0.8,1.8,2471.443,13.29,0.038,76.3
2023-10-19T04:13:03,42.805,6.029,0.043,-0.004,0.011,103.0,102.0,101.0,13.4,1505.2,351.8,-0.8,1.8,2471.452,13.29,0.043,95.3
2023-10-19T04:16:03,42.805,6.029,0.052,0.008,0.039,103.0,103.0,101.0,13.3,1505.2,353.4,-0.8,1.8,2471.471,13.29,0.052,81.3
2023-10-19T04:19:03,42.805,6.029,0.046,-0.016,0.002,102.0,102.0,101.0,13.3,1505.2,338.7,-0.8,1.8,2471.454,13.29,0.048,109.2
2023-10-19T04:22:03,42.805,6.029,0.046,-0.041,-0.012,102.0,102.0,102.0,13.4,1505.2,357.2,-0.7,1.8,2471.441,13.29,0.061,131.7
2023-10-19T04:25:03,42.805,6.029,0.04,-0.003,0.0,101.0,102.0,102.0,13.4,1505.2,329.8,-0.8,1.8,2471.45,13.29,0.04,94.3
2023-10-19T04:28:03,42.805,6.029,0.037,-0.014,-0.013,102.0,103.0,102.0,13.4,1505.2,340.7,-0.8,1.8,2471.461,13.29,0.039,110.7
2023-10-19T04:31:03,42.805,6.029,0.043,-0.004,-0.001,102.0,102.0,102.0,13.4,1505.2,346.8,-0.7,1.8,2471.441,13.29,0.043,95.3
2023-10-19T04:34:03,42.805,6.029,0.042,-0.011,-0.005,102.0,103.0,101.0,13.4,1505.2,343.2,-0.8,1.8,2471.445,13.29,0.043,104.7
2023-10-19T04:37:03,42.805,6.029,0.019,0.013,-0.013,101.0,102.0,102.0,13.4,1505.2,333.8,-0.8,1.8,2471.479,13.29,0.023,55.6
2023-10-19T04:40:03,42.805,6.029,0.02,0.004,-0.042,101.0,103.0,100.0,13.4,1505.2,346.9,-0.8,1.8,2471.486,13.29,0.02,78.7
2023-10-19T04:43:03,42.805,6.029,0.025,0.016,0.004,103.0,102.0,101.0,13.4,1505.2,336.3,-0.8,1.8,2471.416,13.29,0.029,57.4
2023-10-19T04:46:03,42.805,6.029,0.048,0.005,0.017,105.0,103.0,101.0,13.4,1505.2,330.6,-0.7,1.8,2471.408,13.29,0.048,84.1
2023-10-19T04:49:03,42.805,6.029,0.028,0.019,0.016,102.0,103.0,101.0,13.4,1505.2,335.6,-0.7,1.8,2471.471,13.29,0.033,55.8
2023-10-19T04:52:03,42.805,6.029,0.029,0.006,-0.013,103.0,102.0,101.0,13.4,1505.2,333.8,-0.8,1.8,2471.44,13.29,0.029,78.3
2023-10-19T04:55:03,42.805,6.029,0.048,-0.008,-0.013,102.0,104.0,101.0,13.3,1505.2,359.0,-0.8,1.8,2471.467,13.29,0.048,99.5
2023-10-19T04:58:03,42.805,6.029,0.017,0.006,-0.011,101.0,104.0,102.0,13.4,1505.2,351.2,-0.7,1.8,2471.459,13.29,0.018,70.6
2023-10-19T05:04:03,42.805,6.029,0.027,-0.009,-0.012,102.0,103.0,101.0,13.3,1505.2,344.5,-0.8,1.8,2471.494,13.28,0.028,108.4
2023-10-19T05:07:03,42.805,6.029,0.01,-0.01,-0.002,101.0,103.0,102.0,13.4,1505.2,346.8,-0.8,1.8,2471.498,13.29,0.014,135.0
2023-10-19T05:10:03,42.805,6.029,0.032,-0.012,-0.007,102.0,103.0,101.0,13.3,1505.2,348.8,-0.8,1.8,2471.462,13.29,0.034,110.6
2023-10-19T05:13:03,42.805,6.029,0.043,-0.014,-0.015,102.0,104.0,101.0,13.4,1505.2,349.5,-0.8,1.8,2471.469,13.29,0.045,108.0
2023-10-19T05:16:03,42.805,6.029,0.035,0.0,0.01,102.0,103.0,102.0,13.4,1505.2,357.2,-0.7,1.8,2471.47,13.29,0.035,90.0
2023-10-19T05:19:03,42.805,6.029,0.029,0.0,-0.02,102.0,102.0,101.0,13.4,1505.2,348.2,-0.8,1.8,2471.515,13.29,0.028,90.0
2023-10-19T05:22:03,42.805,6.029,0.027,-0.014,-0.023,103.0,104.0,100.0,13.4,1505.2,340.3,-0.7,1.8,2471.481,13.29,0.03,117.4
2023-10-19T05:25:03,42.805,6.029,0.036,0.013,-0.029,103.0,102.0,101.0,13.4,1505.2,337.8,-0.8,1.8,2471.498,13.29,0.038,70.1
2023-10-19T05:28:03,42.805,6.029,0.038,-0.015,-0.034,102.0,102.0,102.0,13.4,1505.2,331.7,-0.8,1.9,2471.493,13.29,0.04,111.5
2023-10-19T05:31:03,42.805,6.029,0.026,-0.007,-0.016,103.0,102.0,101.0,13.4,1505.2,347.2,-0.7,1.8,2471.501,13.29,0.026,105.1
2023-10-19T05:34:03,42.805,6.029,0.05,-0.028,-0.009,102.0,102.0,101.0,13.4,1505.2,335.6,-0.7,1.8,2471.479,13.29,0.057,119.3
2023-10-19T05:37:03,42.805,6.029,0.055,0.005,0.007,102.0,106.0,101.0,13.4,1505.2,346.2,-0.8,1.8,2471.492,13.29,0.055,84.8
2023-10-19T05:40:03,42.805,6.029,0.047,-0.014,0.012,103.0,102.0,101.0,13.3,1505.2,352.4,-0.8,1.8,2471.484,13.29,0.049,106.6
2023-10-19T05:43:03,42.805,6.029,0.037,-0.025,-0.034,102.0,103.0,101.0,13.4,1505.2,351.0,-0.7,1.8,2471.487,13.29,0.044,124.0
2023-10-19T05:46:03,42.805,6.029,0.029,-0.019,-0.025,103.0,103.0,101.0,13.4,1505.2,348.6,-0.8,1.8,2471.494,13.29,0.034,123.2
2023-10-19T05:49:03,42.805,6.029,0.004,-0.006,-0.035,103.0,103.0,102.0,13.4,1505.2,339.1,-0.8,1.8,2471.494,13.29,0.007,146.3
2023-10-19T05:52:03,42.805,6.029,0.022,-0.016,-0.035,103.0,103.0,101.0,13.3,1505.2,339.4,-0.8,1.8,2471.514,13.29,0.027,126.0
2023-10-19T05:55:03,42.805,6.029,0.031,0.0,-0.02,103.0,104.0,101.0,13.4,1505.2,332.5,-0.7,1.8,2471.477,13.29,0.03,90.0
2023-10-19T05:58:03,42.805,6.029,0.054,-0.034,-0.004,102.0,103.0,101.0,13.4,1505.2,356.0,-0.8,1.8,2471.516,13.29,0.063,122.2
2023-10-19T06:04:03,42.805,6.029,0.033,-0.014,-0.031,103.0,103.0,102.0,13.4,1505.2,348.6,-0.8,1.8,2471.558,13.28,0.035,113.0
2023-10-19T06:07:03,42.805,6.029,0.027,-0.03,-0.014,103.0,102.0,101.0,13.3,1505.2,359.0,-0.8,1.8,2471.526,13.29,0.04,138.0
2023-10-19T06:10:03,42.805,6.029,0.044,-0.023,-0.013,103.0,103.0,101.0,13.4,1505.2,339.4,-0.8,1.8,2471.528,13.29,0.049,117.6
2023-10-19T06:13:03,42.805,6.029,0.02,-0.017,0.0,104.0,102.0,101.0,13.4,1505.2,344.2,-0.8,1.8,2471.514,13.29,0.026,130.4
2023-10-19T06:16:03,42.805,6.029,0.021,-0.004,-0.011,102.0,103.0,101.0,13.3,1505.2,341.8,-0.8,1.8,2471.53,13.29,0.021,100.8
2023-10-19T06:19:03,42.805,6.029,0.041,-0.018,0.001,103.0,103.0,102.0,13.4,1505.2,347.4,-0.8,1.8,2471.522,13.29,0.044,113.7
2023-10-19T06:22:03,42.805,6.029,0.031,-0.024,-0.023,102.0,104.0,101.0,13.4,1505.2,343.9,-0.8,1.9,2471.57,13.29,0.039,127.7
2023-10-19T06:25:03,42.805,6.029,0.014,-0.004,-0.018,104.0,102.0,101.0,13.3,1505.2,337.8,-0.8,1.8,2471.53,13.29,0.014,105.9
2023-10-19T06:28:03,42.805,6.029,0.049,-0.01,0.002,102.0,103.0,102.0,13.4,1505.2,344.9,-0.8,1.8,2471.531,13.29,0.05,101.5
2023-10-19T06:31:03,42.805,6.029,0.065,-0.021,0.01,102.0,102.0,102.0,13.4,1505.2,338.3,-0.7,1.8,2471.52,13.29,0.068,107.9
2023-10-19T06:34:03,42.805,6.029,0.037,-0.006,-0.018,103.0,101.0,102.0,13.3,1505.2,331.8,-0.8,1.8,2471.511,13.29,0.037,99.2
2023-10-19T06:37:03,42.805,6.029,0.039,-0.011,0.0,103.0,103.0,101.0,13.4,1505.2,346.1,-0.8,1.8,2471.558,13.29,0.04,105.7
2023-10-19T06:40:03,42.805,6.029,0.047,-0.04,0.023,102.0,103.0,101.0,13.4,1505.2,357.0,-0.7,1.8,2471.542,13.29,0.061,130.4
2023-10-19T06:43:03,42.805,6.029,0.052,-0.03,0.005,102.0,102.0,102.0,13.4,1505.2,351.3,-0.7,1.8,2471.56,13.29,0.06,120.0
2023-10-19T06:46:03,42.805,6.029,0.02,-0.007,0.007,102.0,103.0,102.0,13.4,1505.2,344.1,-0.7,1.8,2471.524,13.29,0.021,109.3
2023-10-19T06:49:03,42.805,6.029,0.036,-0.036,0.002,103.0,102.0,102.0,13.3,1505.2,351.7,-0.8,1.8,2471.54,13.29,0.05,135.0
2023-10-19T06:52:03,42.805,6.029,0.041,-0.042,-0.017,103.0,104.0,102.0,13.4,1505.2,347.9,-0.8,1.8,2471.572,13.29,0.058,135.7
2023-10-19T06:55:03,42.805,6.029,0.029,-0.021,-0.025,103.0,103.0,101.0,13.3,1505.2,357.9,-0.8,1.8,2471.587,13.29,0.035,125.9
2023-10-19T06:58:03,42.805,6.029,0.053,-0.024,-0.015,103.0,103.0,101.0,13.4,1505.2,340.9,-0.7,1.8,2471.545,13.29,0.058,114.4
2023-10-19T07:04:03,42.805,6.029,0.05,-0.008,0.025,103.0,104.0,101.0,13.4,1505.2,333.0,-0.8,1.8,2471.576,13.28,0.05,99.1
2023-10-19T07:07:03,42.805,6.029,0.05,-0.009,0.008,103.0,103.0,101.0,13.4,1505.2,352.0,-0.8,1.8,2471.62,13.28,0.05,100.2
2023-10-19T07:10:03,42.805,6.029,0.014,-0.01,-0.033,103.0,103.0,102.0,13.4,1505.2,341.0,-0.7,1.8,2471.559,13.29,0.017,125.5
2023-10-19T07:13:03,42.805,6.029,0.048,0.004,0.02,104.0,102.0,102.0,13.4,1505.2,345.9,-0.8,1.8,2471.568,13.29,0.048,85.2
2023-10-19T07:16:03,42.805,6.029,0.047,0.011,0.032,102.0,103.0,102.0,13.3,1505.2,339.8,-0.8,1.8,2471.6,13.29,0.048,76.8
2023-10-19T07:19:03,42.805,6.029,0.01,0.004,-0.013,103.0,102.0,101.0,13.4,1505.2,340.0,-0.8,1.8,2471.596,13.29,0.01,68.2
2023-10-19T07:22:03,42.805,6.029,0.039,0.002,0.008,101.0,104.0,101.0,13.4,1505.2,339.4,-0.8,1.8,2471.603,13.29,0.039,87.1
2023-10-19T07:25:03,42.805,6.029,0.034,-0.003,0.008,102.0,104.0,101.0,13.4,1505.2,340.0,-0.7,1.8,2471.596,13.29,0.034,95.0
2023-10-19T07:28:03,42.805,6.029,0.037,-0.032,0.002,103.0,103.0,101.0,13.4,1505.2,350.0,-0.7,1.8,2471.569,13.29,0.048,130.9
2023-10-19T07:31:03,42.805,6.029,0.057,-0.013,0.035,102.0,104.0,101.0,13.4,1505.2,357.0,-0.8,1.8,2471.583,13.29,0.058,102.8
2023-10-19T07:34:03,42.805,6.029,0.052,-0.02,0.007,103.0,103.0,101.0,13.4,1505.2,341.5,-0.8,1.7,2471.603,13.29,0.055,111.0
2023-10-19T07:37:03,42.805,6.029,0.035,-0.016,0.017,102.0,102.0,102.0,13.4,1505.2,342.5,-0.7,1.8,2471.582,13.29,0.038,114.6
2023-10-19T07:40:03,42.805,6.029,0.058,-0.019,-0.017,102.0,103.0,101.0,13.4,1505.2,346.8,-0.7,1.8,2471.591,13.29,0.061,108.1
2023-10-19T07:43:03,42.805,6.029,0.046,0.001,0.012,103.0,103.0,102.0,13.4,1505.2,347.4,-0.8,1.8,2471.596,13.29,0.046,88.8
2023-10-19T07:46:03,42.805,6.029,0.04,-0.014,0.015,102.0,104.0,101.0,13.4,1505.2,341.2,-0.8,1.8,2471.617,13.29,0.042,109.3
2023-10-19T07:49:03,42.805,6.029,0.038,-0.021,0.037,104.0,102.0,101.0,13.4,1505.2,356.9,-0.8,1.8,2471.588,13.29,0.043,118.9
2023-10-19T07:52:03,42.805,6.029,0.063,-0.003,0.0,101.0,103.0,102.0,13.4,1505.2,333.4,-0.7,1.8,2471.627,13.29,0.063,92.7
2023-10-19T07:55:03,42.805,6.029,0.011,-0.02,-0.036,103.0,102.0,101.0,13.4,1505.2,337.2,-0.8,1.8,2471.632,13.29,0.022,151.2
2023-10-19T07:58:03,42.805,6.029,0.043,-0.013,0.004,103.0,103.0,101.0,13.4,1505.2,350.0,-0.8,1.8,2471.576,13.29,0.044,106.8
2023-10-19T08:04:03,42.805,6.029,0.066,-0.024,0.007,103.0,103.0,102.0,13.4,1505.2,342.3,-0.8,1.8,2471.657,13.28,0.07,110.0
2023-10-19T08:07:03,42.805,6.029,0.047,-0.016,-0.013,103.0,103.0,101.0,13.3,1505.2,350.1,-0.8,1.8,2471.667,13.28,0.049,108.8
2023-10-19T08:10:03,42.805,6.029,0.063,-0.001,-0.016,103.0,105.0,100.0,13.4,1505.2,334.2,-0.8,1.8,2471.629,13.29,0.063,90.9
2023-10-19T08:13:03,42.805,6.029,0.041,-0.033,0.029,103.0,102.0,101.0,13.4,1505.2,348.0,-0.8,1.8,2471.641,13.29,0.052,128.8
2023-10-19T08:16:03,42.805,6.029,0.036,-0.02,-0.025,103.0,103.0,101.0,13.4,1505.2,354.6,-0.8,1.8,2471.635,13.29,0.041,119.1
2023-10-19T08:19:03,42.805,6.029,0.028,-0.005,-0.001,102.0,103.0,103.0,13.4,1505.2,358.0,-0.8,1.8,2471.643,13.29,0.028,100.1
2023-10-19T08:22:03,42.805,6.029,0.064,-0.021,-0.004,102.0,104.0,100.0,13.3,1505.2,342.3,-0.7,1.8,2471.639,13.29,0.067,108.2
2023-10-19T08:25:03,42.805,6.029,0.034,-0.007,-0.009,102.0,102.0,102.0,13.3,1505.2,359.0,-0.8,1.9,2471.628,13.29,0.034,101.6
2023-10-19T08:28:03,42.805,6.029,0.062,-0.035,-0.009,103.0,102.0,102.0,13.4,1505.2,336.6,-0.7,1.8,2471.629,13.29,0.071,119.4
2023-10-19T08:31:03,42.805,6.029,0.041,-0.016,-0.022,101.0,104.0,101.0,13.4,1505.2,337.5,-0.8,1.8,2471.652,13.29,0.044,111.3
2023-10-19T08:34:03,42.805,6.029,0.046,-0.002,0.016,103.0,103.0,101.0,13.4,1505.2,330.2,-0.7,1.8,2471.646,13.29,0.046,92.5
2023-10-19T08:37:03,42.805,6.029,0.065,-0.026,0.022,102.0,103.0,102.0,13.3,1505.2,343.9,-0.8,1.8,2471.672,13.29,0.07,111.8
2023-10-19T08:40:03,42.805,6.029,0.043,-0.016,-0.007,103.0,103.0,101.0,13.4,1505.2,334.1,-0.8,1.9,2471.641,13.29,0.045,110.4
2023-10-19T08:43:03,42.805,6.029,0.054,0.006,0.022,103.0,102.0,101.0,13.3,1505.2,336.3,-0.8,1.8,2471.648,13.29,0.054,83.7
2023-10-19T08:46:03,42.805,6.029,0.039,-0.02,-0.003,102.0,103.0,102.0,13.4,1505.2,340.7,-0.8,1.8,2471.621,13.29,0.043,117.1
2023-10-19T08:49:03,42.805,6.029,0.05,-0.025,-0.009,102.0,103.0,101.0,13.4,1505.2,354.2,-0.7,1.8,2471.632,13.29,0.055,116.6
2023-10-19T08:52:03,42.805,6.029,0.041,-0.032,-0.006,102.0,104.0,101.0,13.4,1505.2,354.3,-0.7,1.8,2471.623,13.29,0.052,128.0
2023-10-19T08:55:03,42.805,6.029,0.024,-0.017,-0.004,102.0,102.0,101.0,13.4,1505.2,352.2,-0.8,1.8,2471.619,13.29,0.029,125.3
2023-10-19T08:58:03,42.805,6.029,0.049,-0.039,-0.02,102.0,102.0,101.0,13.4,1505.2,349.8,-0.8,1.9,2471.625,13.29,0.062,128.5
2023-10-19T09:04:03,42.805,6.029,0.067,-0.014,0.002,102.0,103.0,101.0,13.3,1505.2,330.0,-0.7,1.8,2471.7,13.28,0.068,101.8
2023-10-19T09:07:03,42.805,6.029,0.018,-0.023,-0.044,103.0,102.0,102.0,13.4,1505.2,351.0,-0.8,1.8,2471.652,13.28,0.029,142.0
2023-10-19T09:10:03,42.805,6.029,0.038,-0.033,-0.022,102.0,103.0,102.0,13.4,1505.2,350.3,-0.8,1.8,2471.676,13.29,0.05,131.0
2023-10-19T09:13:03,42.805,6.029,0.02,-0.04,-0.041,102.0,103.0,101.0,13.3,1505.2,347.1,-0.8,1.8,2471.654,13.29,0.044,153.4
2023-10-19T09:16:03,42.805,6.029,0.032,-0.03,-0.018,102.0,104.0,101.0,13.4,1505.2,342.4,-0.8,1.8,2471.649,13.29,0.043,133.1
2023-10-19T09:19:03,42.805,6.029,0.053,-0.017,0.008,103.0,102.0,102.0,13.4,1505.2,356.1,-0.8,1.8,2471.649,13.29,0.055,107.8
2023-10-19T09:22:03,42.805,6.029,0.016,-0.008,0.002,103.0,102.0,102.0,13.4,1505.2,351.7,-0.8,1.8,2471.653,13.29,0.017,116.6
2023-10-19T09:25:03,42.805,6.029,0.024,0.009,0.031,103.0,102.0,101.0,13.3,1505.2,349.6,-0.7,1.8,2471.648,13.29,0.025,69.4
2023-10-19T09:28:03,42.805,6.029,0.037,-0.024,0.002,102.0,104.0,101.0,13.3,1505.2,352.6,-0.8,1.8,2471.653,13.29,0.044,123.0
2023-10-19T09:31:03,42.805,6.029,0.02,-0.014,-0.042,104.0,103.0,102.0,13.3,1505.2,333.4,-0.8,1.8,2471.642,13.29,0.024,125.0
2023-10-19T09:34:03,42.805,6.029,0.042,-0.01,-0.016,103.0,102.0,100.0,13.4,1505.2,339.8,-0.8,1.8,2471.66,13.29,0.043,103.4
2023-10-19T09:37:03,42.805,6.029,0.057,-0.02,0.014,102.0,103.0,101.0,13.4,1505.2,341.0,-0.8,1.8,2471.636,13.29,0.06,109.3
2023-10-19T09:40:03,42.805,6.029,0.06,-0.028,-0.006,102.0,102.0,101.0,13.3,1505.2,341.0,-0.8,1.8,2471.656,13.29,0.066,115.0
2023-10-19T09:43:03,42.805,6.029,0.046,-0.019,-0.023,103.0,102.0,100.0,13.4,1505.2,341.5,-0.8,1.8,2471.636,13.29,0.049,112.4
2023-10-19T09:46:03,42.805,6.029,0.018,-0.025,-0.008,103.0,104.0,101.0,13.4,1505.2,342.6,-0.8,1.8,2471.649,13.29,0.03,144.2
2023-10-19T09:49:03,42.805,6.029,0.028,-0.011,-0.024,103.0,104.0,101.0,13.3,1505.2,335.5,-0.8,1.8,2471.697,13.29,0.03,111.4
2023-10-19T09:52:03,42.805,6.029,0.059,-0.041,0.006,103.0,103.0,101.0,13.3,1505.2,359.0,-0.8,1.8,2471.644,13.29,0.071,124.8
2023-10-19T09:55:03,42.805,6.029,0.049,-0.012,0.021,102.0,103.0,101.0,13.4,1505.2,340.9,-0.8,1.8,2471.635,13.29,0.05,103.8
2023-10-19T09:58:03,42.805,6.029,0.046,-0.01,0.043,103.0,102.0,101.0,13.4,1505.2,351.7,-0.8,1.8,2471.647,13.29,0.047,102.3